Airfield :
LOGIN :

Register | Disclaimer

   EN    FR    IT 

 










Legend :    VFR   Marginal VFR   IFR   Intensive IFR   Very Intensive IFR
Visi :
Ceiling :
>= 8 km
>= 3000ft
5 to 8 km
1000 to 3000 ft
1500m to 5 km
500 to 1000 ft
800 to 1500m
200 to 500 ft
< 800m
< 200 ft
Symbols :   Thunderstorms  Fog  Heavy snow  Heavy precipitations  Wind > 20 kt
SIGMETs :     Misc.  Thunderstorms  Icing  Turbulence  Mountain Waves  Volcanic Ashes







- Airport Elevation : 13 ft
- IATA code : LYX
- Download approach charts


EGMD - Lydd

CURRENT METAR :
  • 241550Z 36007KT 9000 NSC 18/15 Q1017

EXPIRED METARs :
  • 241520Z 35008KT 9999 FEW028 18/15 Q1017
  • 241450Z 35006KT CAVOK 17/15 Q1017
  • 241350Z 34008KT 9000 -RA NSC 16/15 Q1018
  • 241320Z 33008KT 9000 -SHRA FEW047 16/14 Q1018

TAF TAF EGMD
Valid from the 24 at 12:00 until the 24 at 21:00 UTC


241102Z 2412/2421 36010KT 9999 FEW045
BECMG 2412/2415 06005KT
TEMPO 2412/2421 7000 SHRA
PROB40
TEMPO 2412/2421 4000 +SHRA BKN014 BKN030CB
ATIS : +44 1797 322 422
No reported NOTAMs for that airfield.



MET'MAP, your aeronautical weather chart ! - Copyright ORBIFLY December 2007 - Disclaimer

ORBIFLY MET'MAP TEAM :

Programming & Development : Alexandra Zaïnal
Concept & Development : Baudouin d'Aumeries
Co-Development & Prog : Marc-Olivier Méhu
Technical & hardware support : Manuel Goepfert

Contact : metmap@orbifly.com




SOURCES & CREDITS :

   NOAA